Satellite: NOAA-11
Catalog number: 19531
Epoch time:      06193.81980554
Element set:    0194
Inclination:      098.8281 deg
RA of node:       281.9608 deg
Eccentricity:    0.0010812
Arg of perigee:   277.7972 deg
Mean anomaly:     082.1987 deg
Mean motion:   14.14810762 rev/day
Decay rate:      -1.25e-06 rev/day^2
Epoch rev:           91816
Checksum:              330

Satellite: NOAA-12
Catalog number: 21263
Epoch time:      06193.65511011
Element set:    0688
Inclination:      098.7301 deg
RA of node:       186.8322 deg
Eccentricity:    0.0013197
Arg of perigee:   018.3936 deg
Mean anomaly:     341.7704 deg
Mean motion:   14.25491481 rev/day
Decay rate:       2.21e-06 rev/day^2
Epoch rev:           78787
Checksum:              304

Satellite: MET-3/5
Catalog number: 21655
Epoch time:      06193.96770365
Element set:    0160
Inclination:      082.5509 deg
RA of node:       242.5732 deg
Eccentricity:    0.0013416
Arg of perigee:   342.8777 deg
Mean anomaly:     017.1890 deg
Mean motion:   13.17006256 rev/day
Decay rate:        5.1e-07 rev/day^2
Epoch rev:           71675
Checksum:              303

Satellite: MET-2/21
Catalog number: 22782
Epoch time:      06193.84896741
Element set:    0560
Inclination:      082.5497 deg
RA of node:       311.0936 deg
Eccentricity:    0.0023938
Arg of perigee:   107.0864 deg
Mean anomaly:     253.2923 deg
Mean motion:   13.83606551 rev/day
Decay rate:       -8.5e-07 rev/day^2
Epoch rev:           64959
Checksum:              334

Satellite: OKEAN-4
Catalog number: 23317
Epoch time:      06194.74621616
Element set:     996
Inclination:      082.5386 deg
RA of node:       252.2292 deg
Eccentricity:    0.0020759
Arg of perigee:   289.7106 deg
Mean anomaly:     070.1899 deg
Mean motion:   14.82377233 rev/day
Decay rate:       3.74e-06 rev/day^2
Epoch rev:           63391
Checksum:              329

Satellite: NOAA-14
Catalog number: 23455
Epoch time:      06193.70829834
Element set:    0190
Inclination:      099.0363 deg
RA of node:       252.2508 deg
Eccentricity:    0.0009035
Arg of perigee:   344.2439 deg
Mean anomaly:     015.8449 deg
Mean motion:   14.13670886 rev/day
Decay rate:       2.92e-06 rev/day^2
Epoch rev:           59467
Checksum:              323

Satellite: SICH-1
Catalog number: 23657
Epoch time:      06194.75838991
Element set:     798
Inclination:      082.5278 deg
RA of node:       033.1179 deg
Eccentricity:    0.0022342
Arg of perigee:   276.8302 deg
Mean anomaly:     083.0340 deg
Mean motion:   14.81371704 rev/day
Decay rate:       1.00e-06 rev/day^2
Epoch rev:           58592
Checksum:              309

Satellite: NOAA-15
Catalog number: 25338
Epoch time:      06193.80022320
Element set:    0579
Inclination:      098.5148 deg
RA of node:       195.3356 deg
Eccentricity:    0.0009769
Arg of perigee:   302.9851 deg
Mean anomaly:     057.0359 deg
Mean motion:   14.24592110 rev/day
Decay rate:       1.14e-06 rev/day^2
Epoch rev:           42436
Checksum:              303

Satellite: RESURS
Catalog number: 25394
Epoch time:      06193.78860164
Element set:     410
Inclination:      098.4921 deg
RA of node:       255.8143 deg
Eccentricity:    0.0002357
Arg of perigee:   089.0346 deg
Mean anomaly:     271.1103 deg
Mean motion:   14.24105934 rev/day
Decay rate:       -2.0e-08 rev/day^2
Epoch rev:           41604
Checksum:              272

Satellite: FENGYUN1
Catalog number: 25730
Epoch time:      06194.55661129
Element set:     774
Inclination:      098.6252 deg
RA of node:       186.1067 deg
Eccentricity:    0.0015498
Arg of perigee:   066.4371 deg
Mean anomaly:     293.8416 deg
Mean motion:   14.11811069 rev/day
Decay rate:      -3.00e-06 rev/day^2
Epoch rev:           36973
Checksum:              312

Satellite: OKEAN-0
Catalog number: 25860
Epoch time:      06194.62902621
Element set:     798
Inclination:      097.7318 deg
RA of node:       207.7289 deg
Eccentricity:    0.0001822
Arg of perigee:   061.2925 deg
Mean anomaly:     298.8471 deg
Mean motion:   14.73375797 rev/day
Decay rate:        7.0e-07 rev/day^2
Epoch rev:           37564
Checksum:              336

Satellite: NOAA-16
Catalog number: 26536
Epoch time:      06193.86157102
Element set:    0955
Inclination:      099.0676 deg
RA of node:       160.7844 deg
Eccentricity:    0.0011372
Arg of perigee:   050.0759 deg
Mean anomaly:     310.1394 deg
Mean motion:   14.12353399 rev/day
Decay rate:      -1.31e-06 rev/day^2
Epoch rev:           29920
Checksum:              303

Satellite: NOAA-17
Catalog number: 27453
Epoch time:      06193.75126450
Element set:    0974
Inclination:      098.6200 deg
RA of node:       265.4659 deg
Eccentricity:    0.0011780
Arg of perigee:   006.2048 deg
Mean anomaly:     353.9292 deg
Mean motion:   14.23792289 rev/day
Decay rate:        2.1e-07 rev/day^2
Epoch rev:           21041
Checksum:              299

